Time,TemperatureF,DewpointF,PressureIn,WindDirection,WindDirectionDegrees,WindSpeedMPH,WindSpeedGustMPH,Humidity,HourlyPrecipIn,Conditions,Clouds,dailyrainin,SoftwareType,DateUTC
2013-03-18 00:00:00,62.0,15.2,29.69,NW,306,0.0,0.0,16,0.00,,,0.00,Wunderground v.1.15,2013-03-18 06:00:00,
2013-03-18 00:05:00,61.8,15.1,29.68,WNW,284,0.0,0.0,16,0.00,,,0.00,Wunderground v.1.15,2013-03-18 06:05:00,
2013-03-18 00:15:00,61.5,13.4,29.68,WNW,286,0.0,0.0,15,0.00,,,0.00,Wunderground v.1.15,2013-03-18 06:15:00,
2013-03-18 00:20:00,61.3,13.2,29.68,West,281,0.0,0.0,15,0.00,,,0.00,Wunderground v.1.15,2013-03-18 06:20:00,
2013-03-18 00:25:00,61.2,13.1,29.69,West,279,0.0,0.0,15,0.00,,,0.00,Wunderground v.1.15,2013-03-18 06:25:00,
2013-03-18 00:30:00,61.0,12.9,29.69,West,280,0.0,0.0,15,0.00,,,0.00,Wunderground v.1.15,2013-03-18 06:30:00,
2013-03-18 00:35:00,60.8,12.8,29.69,West,263,0.0,0.0,15,0.00,,,0.00,Wunderground v.1.15,2013-03-18 06:35:00,
2013-03-18 00:45:00,60.5,14.0,29.69,West,277,0.0,0.0,16,0.00,,,0.00,Wunderground v.1.15,2013-03-18 06:45:00,
2013-03-18 00:55:00,60.4,15.3,29.70,WNW,284,0.0,0.0,17,0.00,,,0.00,Wunderground v.1.15,2013-03-18 06:55:00,
2013-03-18 01:00:00,60.3,15.2,29.70,WNW,290,0.0,0.0,17,0.00,,,0.00,Wunderground v.1.15,2013-03-18 07:00:00,
2013-03-18 01:05:00,60.1,15.1,29.68,West,275,0.0,0.0,17,0.00,,,0.00,Wunderground v.1.15,2013-03-18 07:05:00,
2013-03-18 01:15:00,59.9,16.2,29.69,WNW,293,0.0,0.0,18,0.00,,,0.00,Wunderground v.1.15,2013-03-18 07:15:00,
2013-03-18 01:20:00,59.8,16.1,29.69,West,272,0.0,0.0,18,0.00,,,0.00,Wunderground v.1.15,2013-03-18 07:20:00,
2013-03-18 01:30:00,59.7,16.1,29.69,NW,309,0.0,2.0,18,0.00,,,0.00,Wunderground v.1.15,2013-03-18 07:30:00,
2013-03-18 01:35:00,59.6,17.2,29.69,NW,321,0.0,2.0,19,0.00,,,0.00,Wunderground v.1.15,2013-03-18 07:35:00,
2013-03-18 01:40:00,59.5,17.1,29.69,West,281,0.0,0.0,19,0.00,,,0.00,Wunderground v.1.15,2013-03-18 07:40:00,
2013-03-18 01:45:00,59.4,17.1,29.70,WNW,299,0.0,0.0,19,0.00,,,0.00,Wunderground v.1.15,2013-03-18 07:45:00,
2013-03-18 01:55:00,59.4,17.1,29.69,NW,307,1.0,2.0,19,0.00,,,0.00,Wunderground v.1.15,2013-03-18 07:55:00,
2013-03-18 02:05:00,59.6,17.2,29.69,West,280,1.0,1.0,19,0.00,,,0.00,Wunderground v.1.15,2013-03-18 08:05:00,
2013-03-18 02:15:00,59.8,17.4,29.69,WSW,251,1.0,1.0,19,0.00,,,0.00,Wunderground v.1.15,2013-03-18 08:15:00,
2013-03-18 02:20:00,59.8,17.4,29.69,West,268,1.0,1.0,19,0.00,,,0.00,Wunderground v.1.15,2013-03-18 08:20:00,
2013-03-18 02:25:00,59.7,17.3,29.69,West,278,0.0,1.0,19,0.00,,,0.00,Wunderground v.1.15,2013-03-18 08:25:00,
2013-03-18 02:35:00,59.2,18.1,29.71,WSW,245,0.0,0.0,20,0.00,,,0.00,Wunderground v.1.15,2013-03-18 08:35:00,
2013-03-18 02:40:00,59.0,17.9,29.71,WSW,245,0.0,0.0,20,0.00,,,0.00,Wunderground v.1.15,2013-03-18 08:40:00,
2013-03-18 02:45:00,59.0,17.9,29.71,WSW,245,0.0,0.0,20,0.00,,,0.00,Wunderground v.1.15,2013-03-18 08:45:00,
2013-03-18 02:55:00,58.6,17.6,29.71,West,264,0.0,1.0,20,0.00,,,0.00,Wunderground v.1.15,2013-03-18 08:55:00,
2013-03-18 03:00:00,58.6,17.6,29.71,West,275,0.0,0.0,20,0.00,,,0.00,Wunderground v.1.15,2013-03-18 09:00:00,
2013-03-18 03:05:00,58.5,17.5,29.71,West,281,0.0,0.0,20,0.00,,,0.00,Wunderground v.1.15,2013-03-18 09:05:00,
2013-03-18 03:15:00,58.7,18.8,29.71,West,275,1.0,3.0,21,0.00,,,0.00,Wunderground v.1.15,2013-03-18 09:15:00,
2013-03-18 03:20:00,59.0,19.1,29.71,WNW,294,1.0,1.0,21,0.00,,,0.00,Wunderground v.1.15,2013-03-18 09:20:00,
2013-03-18 03:25:00,59.0,19.1,29.71,WNW,288,1.0,1.0,21,0.00,,,0.00,Wunderground v.1.15,2013-03-18 09:25:00,
2013-03-18 03:30:00,59.0,19.1,29.71,West,277,1.0,1.0,21,0.00,,,0.00,Wunderground v.1.15,2013-03-18 09:30:00,
2013-03-18 03:35:00,59.4,19.4,29.71,NW,307,1.0,1.0,21,0.00,,,0.00,Wunderground v.1.15,2013-03-18 09:35:00,
2013-03-18 03:40:00,59.5,19.5,29.70,WNW,288,1.0,1.0,21,0.00,,,0.00,Wunderground v.1.15,2013-03-18 09:40:00,
2013-03-18 03:45:00,59.4,19.4,29.70,WNW,290,0.0,1.0,21,0.00,,,0.00,Wunderground v.1.15,2013-03-18 09:45:00,
2013-03-18 03:50:00,59.3,19.3,29.71,WNW,294,0.0,0.0,21,0.00,,,0.00,Wunderground v.1.15,2013-03-18 09:50:00,
2013-03-18 03:55:00,59.0,19.1,29.71,WNW,282,0.0,0.0,21,0.00,,,0.00,Wunderground v.1.15,2013-03-18 09:55:00,
2013-03-18 04:05:00,58.8,18.9,29.71,West,281,0.0,0.0,21,0.00,,,0.00,Wunderground v.1.15,2013-03-18 10:05:00,
2013-03-18 04:15:00,58.3,18.5,29.72,WNW,283,0.0,0.0,21,0.00,,,0.00,Wunderground v.1.15,2013-03-18 10:15:00,
2013-03-18 04:20:00,57.9,18.1,29.72,WNW,283,0.0,0.0,21,0.00,,,0.00,Wunderground v.1.15,2013-03-18 10:20:00,
2013-03-18 04:25:00,57.5,17.8,29.72,WNW,284,0.0,0.0,21,0.00,,,0.00,Wunderground v.1.15,2013-03-18 10:25:00,
2013-03-18 04:30:00,57.1,17.5,29.73,WNW,283,0.0,0.0,21,0.00,,,0.00,Wunderground v.1.15,2013-03-18 10:30:00,
2013-03-18 04:35:00,56.6,17.1,29.74,West,268,0.0,0.0,21,0.00,,,0.00,Wunderground v.1.15,2013-03-18 10:35:00,
2013-03-18 04:40:00,55.9,16.5,29.73,SW,226,0.0,0.0,21,0.00,,,0.00,Wunderground v.1.15,2013-03-18 10:40:00,
2013-03-18 04:45:00,55.3,17.0,29.74,SSW,205,0.0,0.0,22,0.00,,,0.00,Wunderground v.1.15,2013-03-18 10:45:00,
2013-03-18 04:50:00,54.7,16.5,29.74,SSW,205,0.0,0.0,22,0.00,,,0.00,Wunderground v.1.15,2013-03-18 10:50:00,
2013-03-18 04:55:00,54.1,16.0,29.74,SSW,205,0.0,0.0,22,0.00,,,0.00,Wunderground v.1.15,2013-03-18 10:55:00,
2013-03-18 05:00:00,53.5,16.6,29.74,SSW,205,0.0,0.0,23,0.00,,,0.00,Wunderground v.1.15,2013-03-18 11:00:00,
2013-03-18 05:10:00,52.6,16.8,29.75,SSW,205,0.0,0.0,24,0.00,,,0.00,Wunderground v.1.15,2013-03-18 11:10:00,
2013-03-18 05:15:00,52.2,16.4,29.76,SSW,205,0.0,0.0,24,0.00,,,0.00,Wunderground v.1.15,2013-03-18 11:15:00,
2013-03-18 05:25:00,51.7,16.0,29.76,SSW,205,0.0,0.0,24,0.00,,,0.00,Wunderground v.1.15,2013-03-18 11:25:00,
2013-03-18 05:30:00,51.3,16.6,29.76,SSW,205,0.0,0.0,25,0.00,,,0.00,Wunderground v.1.15,2013-03-18 11:30:00,
2013-03-18 05:35:00,50.9,16.3,29.77,SSW,205,0.0,0.0,25,0.00,,,0.00,Wunderground v.1.15,2013-03-18 11:35:00,
2013-03-18 05:40:00,50.5,15.9,29.77,SSW,205,0.0,0.0,25,0.00,,,0.00,Wunderground v.1.15,2013-03-18 11:40:00,
2013-03-18 05:45:00,49.9,15.4,29.78,SSE,165,0.0,0.0,25,0.00,,,0.00,Wunderground v.1.15,2013-03-18 11:45:00,
2013-03-18 05:50:00,49.3,14.9,29.78,SSE,165,0.0,0.0,25,0.00,,,0.00,Wunderground v.1.15,2013-03-18 11:50:00,
2013-03-18 05:55:00,48.6,15.2,29.78,SSE,165,0.0,0.0,26,0.00,,,0.00,Wunderground v.1.15,2013-03-18 11:55:00,
2013-03-18 06:00:00,47.9,14.6,29.80,SSE,164,0.0,0.0,26,0.00,,,0.00,Wunderground v.1.15,2013-03-18 12:00:00,
2013-03-18 06:05:00,47.4,14.2,29.82,SSE,164,0.0,0.0,26,0.00,,,0.00,Wunderground v.1.15,2013-03-18 12:05:00,
2013-03-18 06:15:00,46.9,15.4,29.82,SSE,164,0.0,0.0,28,0.00,,,0.00,Wunderground v.1.15,2013-03-18 12:15:00,
2013-03-18 06:20:00,46.8,15.4,29.82,SSE,164,0.0,0.0,28,0.00,,,0.00,Wunderground v.1.15,2013-03-18 12:20:00,
2013-03-18 06:25:00,46.7,15.3,29.82,SSE,164,0.0,0.0,28,0.00,,,0.00,Wunderground v.1.15,2013-03-18 12:25:00,
2013-03-18 06:30:00,46.7,15.3,29.82,SSE,164,0.0,0.0,28,0.00,,,0.00,Wunderground v.1.15,2013-03-18 12:30:00,
2013-03-18 06:35:00,46.5,15.1,29.82,SSE,164,0.0,0.0,28,0.00,,,0.00,Wunderground v.1.15,2013-03-18 12:35:00,
2013-03-18 06:40:00,46.4,15.0,29.82,SSE,164,0.0,0.0,28,0.00,,,0.00,Wunderground v.1.15,2013-03-18 12:40:00,
2013-03-18 06:45:00,46.3,14.9,29.83,SSE,164,0.0,0.0,28,0.00,,,0.00,Wunderground v.1.15,2013-03-18 12:45:00,
2013-03-18 06:50:00,46.3,15.7,29.83,SSE,164,0.0,0.0,29,0.00,,,0.00,Wunderground v.1.15,2013-03-18 12:50:00,
2013-03-18 06:55:00,46.3,15.7,29.83,SSE,164,0.0,0.0,29,0.00,,,0.00,Wunderground v.1.15,2013-03-18 12:55:00,
2013-03-18 07:05:00,46.4,15.8,29.84,SSE,164,0.0,0.0,29,0.00,,,0.00,Wunderground v.1.15,2013-03-18 13:05:00,
2013-03-18 07:15:00,46.7,16.1,29.84,SSE,164,0.0,0.0,29,0.00,,,0.00,Wunderground v.1.15,2013-03-18 13:15:00,
2013-03-18 07:20:00,46.8,16.2,29.84,SSE,163,0.0,0.0,29,0.00,,,0.00,Wunderground v.1.15,2013-03-18 13:20:00,
2013-03-18 07:25:00,46.8,15.4,29.85,SSE,153,0.0,0.0,28,0.00,,,0.00,Wunderground v.1.15,2013-03-18 13:25:00,
2013-03-18 07:30:00,46.7,15.3,29.85,SE,138,0.0,0.0,28,0.00,,,0.00,Wunderground v.1.15,2013-03-18 13:30:00,
2013-03-18 07:40:00,46.3,14.9,29.86,SE,139,0.0,0.0,28,0.00,,,0.00,Wunderground v.1.15,2013-03-18 13:40:00,
2013-03-18 07:45:00,46.3,15.7,29.86,SE,138,0.0,0.0,29,0.00,,,0.00,Wunderground v.1.15,2013-03-18 13:45:00,
2013-03-18 07:50:00,46.4,15.8,29.86,SE,139,0.0,0.0,29,0.00,,,0.00,Wunderground v.1.15,2013-03-18 13:50:00,
2013-03-18 07:55:00,46.6,16.0,29.86,SE,138,0.0,0.0,29,0.00,,,0.00,Wunderground v.1.15,2013-03-18 13:55:00,
2013-03-18 08:00:00,47.2,17.3,29.86,SE,133,0.0,0.0,30,0.00,,,0.00,Wunderground v.1.15,2013-03-18 14:00:00,
2013-03-18 08:05:00,48.3,17.5,29.87,SE,133,0.0,0.0,29,0.00,,,0.00,Wunderground v.1.15,2013-03-18 14:05:00,
2013-03-18 08:15:00,49.7,17.9,29.87,SE,133,0.0,0.0,28,0.00,,,0.00,Wunderground v.1.15,2013-03-18 14:15:00,
2013-03-18 08:20:00,50.5,18.6,29.87,SE,133,0.0,0.0,28,0.00,,,0.00,Wunderground v.1.15,2013-03-18 14:20:00,
2013-03-18 08:25:00,51.2,18.3,29.86,SE,133,0.0,0.0,27,0.00,,,0.00,Wunderground v.1.15,2013-03-18 14:25:00,
2013-03-18 08:30:00,51.9,18.9,29.87,SE,136,0.0,0.0,27,0.00,,,0.00,Wunderground v.1.15,2013-03-18 14:30:00,
2013-03-18 08:35:00,52.5,18.6,29.87,SE,131,0.0,0.0,26,0.00,,,0.00,Wunderground v.1.15,2013-03-18 14:35:00,
2013-03-18 08:45:00,53.3,19.2,29.87,SE,132,0.0,0.0,26,0.00,,,0.00,Wunderground v.1.15,2013-03-18 14:45:00,
2013-03-18 08:55:00,53.9,19.8,29.87,SE,140,0.0,0.0,26,0.00,,,0.00,Wunderground v.1.15,2013-03-18 14:55:00,
2013-03-18 09:00:00,54.4,20.2,29.87,SE,141,0.0,0.0,26,0.00,,,0.00,Wunderground v.1.15,2013-03-18 15:00:00,
2013-03-18 09:05:00,54.9,19.7,29.87,SE,136,0.0,0.0,25,0.00,,,0.00,Wunderground v.1.15,2013-03-18 15:05:00,
2013-03-18 09:15:00,55.7,20.4,29.88,SE,132,0.0,0.0,25,0.00,,,0.00,Wunderground v.1.15,2013-03-18 15:15:00,
2013-03-18 09:20:00,56.0,20.6,29.88,SE,126,0.0,0.0,25,0.00,,,0.00,Wunderground v.1.15,2013-03-18 15:20:00,
2013-03-18 09:25:00,56.3,19.9,29.88,SE,126,0.0,0.0,24,0.00,,,0.00,Wunderground v.1.15,2013-03-18 15:25:00,
2013-03-18 09:30:00,56.6,20.2,29.88,SE,126,0.0,0.0,24,0.00,,,0.00,Wunderground v.1.15,2013-03-18 15:30:00,
2013-03-18 09:35:00,57.0,20.5,29.88,SE,127,0.0,2.0,24,0.00,,,0.00,Wunderground v.1.15,2013-03-18 15:35:00,
2013-03-18 09:40:00,57.5,20.9,29.88,SE,128,0.0,0.0,24,0.00,,,0.00,Wunderground v.1.15,2013-03-18 15:40:00,
2013-03-18 09:50:00,58.3,20.6,29.88,ESE,110,0.0,0.0,23,0.00,,,0.00,Wunderground v.1.15,2013-03-18 15:50:00,
2013-03-18 10:00:00,59.0,21.2,29.87,SE,127,0.0,0.0,23,0.00,,,0.00,Wunderground v.1.15,2013-03-18 16:00:00,
2013-03-18 10:05:00,59.6,21.7,29.88,SE,137,0.0,0.0,23,0.00,,,0.00,Wunderground v.1.15,2013-03-18 16:05:00,
2013-03-18 10:15:00,60.4,22.4,29.88,SE,144,0.0,0.0,23,0.00,,,0.00,Wunderground v.1.15,2013-03-18 16:15:00,
2013-03-18 10:20:00,60.8,21.7,29.87,ESE,119,0.0,0.0,22,0.00,,,0.00,Wunderground v.1.15,2013-03-18 16:20:00,
2013-03-18 10:30:00,61.6,22.3,29.87,WSW,244,0.0,0.0,22,0.00,,,0.00,Wunderground v.1.15,2013-03-18 16:30:00,
2013-03-18 10:35:00,61.9,21.5,29.87,West,259,0.0,0.0,21,0.00,,,0.00,Wunderground v.1.15,2013-03-18 16:35:00,
2013-03-18 10:40:00,62.3,22.9,29.87,SE,146,0.0,0.0,22,0.00,,,0.00,Wunderground v.1.15,2013-03-18 16:40:00,
2013-03-18 10:45:00,62.6,23.2,29.86,SE,134,0.0,1.0,22,0.00,,,0.00,Wunderground v.1.15,2013-03-18 16:45:00,
2013-03-18 10:50:00,63.1,22.5,29.87,ESE,115,0.0,3.0,21,0.00,,,0.00,Wunderground v.1.15,2013-03-18 16:50:00,
2013-03-18 11:00:00,63.6,22.9,29.87,East,88,0.0,0.0,21,0.00,,,0.00,Wunderground v.1.15,2013-03-18 17:00:00,
2013-03-18 11:10:00,64.0,23.2,29.87,ESE,115,0.0,2.0,21,0.00,,,0.00,Wunderground v.1.15,2013-03-18 17:10:00,
2013-03-18 11:15:00,64.0,23.2,29.87,ESE,110,0.0,2.0,21,0.00,,,0.00,Wunderground v.1.15,2013-03-18 17:15:00,
2013-03-18 11:20:00,64.1,23.3,29.86,ESE,107,0.0,0.0,21,0.00,,,0.00,Wunderground v.1.15,2013-03-18 17:20:00,
2013-03-18 11:25:00,64.4,23.6,29.86,SE,125,0.0,0.0,21,0.00,,,0.00,Wunderground v.1.15,2013-03-18 17:25:00,
2013-03-18 11:30:00,64.8,23.9,29.86,ESE,123,0.0,0.0,21,0.00,,,0.00,Wunderground v.1.15,2013-03-18 17:30:00,
2013-03-18 11:35:00,65.0,24.1,29.86,West,276,0.0,0.0,21,0.00,,,0.00,Wunderground v.1.15,2013-03-18 17:35:00,
2013-03-18 11:40:00,65.4,24.4,29.86,ESE,117,0.0,0.0,21,0.00,,,0.00,Wunderground v.1.15,2013-03-18 17:40:00,
2013-03-18 11:45:00,65.9,23.7,29.85,West,265,0.0,0.0,20,0.00,,,0.00,Wunderground v.1.15,2013-03-18 17:45:00,
2013-03-18 11:50:00,66.5,24.2,29.84,ESE,111,1.0,1.0,20,0.00,,,0.00,Wunderground v.1.15,2013-03-18 17:50:00,
2013-03-18 11:55:00,67.1,24.6,29.84,ESE,113,1.0,1.0,20,0.00,,,0.00,Wunderground v.1.15,2013-03-18 17:55:00,
2013-03-18 12:05:00,68.2,24.3,29.84,West,274,1.0,4.0,19,0.00,,,0.00,Wunderground v.1.15,2013-03-18 18:05:00,
2013-03-18 12:15:00,69.6,24.2,29.83,WSW,248,1.0,1.0,18,0.00,,,0.00,Wunderground v.1.15,2013-03-18 18:15:00,
2013-03-18 12:20:00,69.9,23.1,29.82,WSW,242,0.0,0.0,17,0.00,,,0.00,Wunderground v.1.15,2013-03-18 18:20:00,
2013-03-18 12:25:00,70.1,24.6,29.82,WSW,252,0.0,0.0,18,0.00,,,0.00,Wunderground v.1.15,2013-03-18 18:25:00,
2013-03-18 12:30:00,70.4,23.5,29.82,WSW,246,0.0,0.0,17,0.00,,,0.00,Wunderground v.1.15,2013-03-18 18:30:00,
2013-03-18 12:35:00,70.6,23.6,29.82,SW,228,0.0,0.0,17,0.00,,,0.00,Wunderground v.1.15,2013-03-18 18:35:00,
2013-03-18 12:45:00,71.3,24.2,29.81,West,259,1.0,1.0,17,0.00,,,0.00,Wunderground v.1.15,2013-03-18 18:45:00,
2013-03-18 12:50:00,71.8,23.2,29.81,WSW,237,1.0,1.0,16,0.00,,,0.00,Wunderground v.1.15,2013-03-18 18:50:00,
2013-03-18 12:55:00,72.4,23.6,29.80,West,270,1.0,4.0,16,0.00,,,0.00,Wunderground v.1.15,2013-03-18 18:55:00,
2013-03-18 13:00:00,72.8,22.4,29.80,NW,320,2.0,4.0,15,0.00,,,0.00,Wunderground v.1.15,2013-03-18 19:00:00,
2013-03-18 13:05:00,73.4,22.9,29.79,West,273,2.0,4.0,15,0.00,,,0.00,Wunderground v.1.15,2013-03-18 19:05:00,
2013-03-18 13:15:00,74.0,21.7,29.78,North,360,1.0,7.0,14,0.00,,,0.00,Wunderground v.1.15,2013-03-18 19:15:00,
2013-03-18 13:25:00,74.4,22.1,29.78,North,360,2.0,2.0,14,0.00,,,0.00,Wunderground v.1.15,2013-03-18 19:25:00,
2013-03-18 13:30:00,74.8,22.4,29.77,North,360,1.0,2.0,14,0.00,,,0.00,Wunderground v.1.15,2013-03-18 19:30:00,
2013-03-18 13:35:00,74.7,22.3,29.77,West,279,1.0,2.0,14,0.00,,,0.00,Wunderground v.1.15,2013-03-18 19:35:00,
2013-03-18 13:40:00,74.7,22.3,29.77,WNW,286,1.0,1.0,14,0.00,,,0.00,Wunderground v.1.15,2013-03-18 19:40:00,
2013-03-18 13:50:00,74.9,22.5,29.76,West,269,1.0,1.0,14,0.00,,,0.00,Wunderground v.1.15,2013-03-18 19:50:00,
2013-03-18 13:55:00,75.1,20.9,29.76,North,360,2.0,2.0,13,0.00,,,0.00,Wunderground v.1.15,2013-03-18 19:55:00,
2013-03-18 14:00:00,75.0,20.8,29.76,WSW,249,3.0,3.0,13,0.00,,,0.00,Wunderground v.1.15,2013-03-18 20:00:00,
2013-03-18 14:05:00,74.7,20.5,29.76,WSW,247,3.0,3.0,13,0.00,,,0.00,Wunderground v.1.15,2013-03-18 20:05:00,
2013-03-18 14:15:00,74.7,22.3,29.75,East,100,3.0,3.0,14,0.00,,,0.00,Wunderground v.1.15,2013-03-18 20:15:00,
2013-03-18 14:20:00,75.0,22.5,29.75,WSW,258,2.0,7.0,14,0.00,,,0.00,Wunderground v.1.15,2013-03-18 20:20:00,
2013-03-18 14:25:00,75.5,21.2,29.74,SW,223,2.0,7.0,13,0.00,,,0.00,Wunderground v.1.15,2013-03-18 20:25:00,
2013-03-18 14:30:00,75.8,19.5,29.75,SW,230,3.0,3.0,12,0.00,,,0.00,Wunderground v.1.15,2013-03-18 20:30:00,
2013-03-18 14:35:00,76.0,19.7,29.74,West,261,2.0,3.0,12,0.00,,,0.00,Wunderground v.1.15,2013-03-18 20:35:00,
2013-03-18 14:40:00,76.4,20.0,29.74,SW,231,1.0,1.0,12,0.00,,,0.00,Wunderground v.1.15,2013-03-18 20:40:00,
2013-03-18 14:45:00,76.6,20.1,29.73,WSW,245,2.0,6.0,12,0.00,,,0.00,Wunderground v.1.15,2013-03-18 20:45:00,
2013-03-18 14:50:00,76.1,19.8,29.74,SSW,209,2.0,2.0,12,0.00,,,0.00,Wunderground v.1.15,2013-03-18 20:50:00,
2013-03-18 15:00:00,75.9,21.5,29.73,West,259,2.0,2.0,13,0.00,,,0.00,Wunderground v.1.15,2013-03-18 21:00:00,
2013-03-18 15:05:00,76.0,23.3,29.74,WSW,250,2.0,4.0,14,0.00,,,0.00,Wunderground v.1.15,2013-03-18 21:05:00,
2013-03-18 15:15:00,75.6,23.0,29.73,West,280,4.0,4.0,14,0.00,,,0.00,Wunderground v.1.15,2013-03-18 21:15:00,
2013-03-18 15:20:00,75.7,23.1,29.73,NE,36,3.0,3.0,14,0.00,,,0.00,Wunderground v.1.15,2013-03-18 21:20:00,
2013-03-18 15:30:00,76.1,21.6,29.72,SSE,164,3.0,3.0,13,0.00,,,0.00,Wunderground v.1.15,2013-03-18 21:30:00,
2013-03-18 15:40:00,76.4,21.9,29.72,West,269,2.0,9.0,13,0.00,,,0.00,Wunderground v.1.15,2013-03-18 21:40:00,
2013-03-18 15:45:00,76.4,21.9,29.72,South,175,3.0,9.0,13,0.00,,,0.00,Wunderground v.1.15,2013-03-18 21:45:00,
2013-03-18 15:50:00,76.8,22.2,29.71,West,260,3.0,5.0,13,0.00,,,0.00,Wunderground v.1.15,2013-03-18 21:50:00,
2013-03-18 15:55:00,76.8,22.2,29.71,WSW,252,3.0,12.0,13,0.00,,,0.00,Wunderground v.1.15,2013-03-18 21:55:00,
2013-03-18 16:05:00,76.7,22.1,29.73,ESE,123,2.0,3.0,13,0.00,,,0.00,Wunderground v.1.15,2013-03-18 22:05:00,
2013-03-18 16:15:00,76.8,22.2,29.73,West,273,2.0,2.0,13,0.00,,,0.00,Wunderground v.1.15,2013-03-18 22:15:00,
2013-03-18 16:20:00,76.9,22.3,29.73,SW,219,2.0,2.0,13,0.00,,,0.00,Wunderground v.1.15,2013-03-18 22:20:00,
2013-03-18 16:30:00,76.7,22.1,29.73,North,360,2.0,10.0,13,0.00,,,0.00,Wunderground v.1.15,2013-03-18 22:30:00,
2013-03-18 16:35:00,76.6,20.1,29.73,SW,236,3.0,10.0,12,0.00,,,0.00,Wunderground v.1.15,2013-03-18 22:35:00,
2013-03-18 16:40:00,76.4,20.0,29.73,WSW,246,4.0,4.0,12,0.00,,,0.00,Wunderground v.1.15,2013-03-18 22:40:00,
2013-03-18 16:45:00,76.3,19.9,29.72,WNW,302,3.0,4.0,12,0.00,,,0.00,Wunderground v.1.15,2013-03-18 22:45:00,
2013-03-18 16:50:00,76.1,17.7,29.72,West,267,3.0,5.0,11,0.00,,,0.00,Wunderground v.1.15,2013-03-18 22:50:00,
2013-03-18 16:55:00,76.1,17.7,29.72,North,360,3.0,5.0,11,0.00,,,0.00,Wunderground v.1.15,2013-03-18 22:55:00,
2013-03-18 17:00:00,76.1,17.7,29.72,South,180,2.0,2.0,11,0.00,,,0.00,Wunderground v.1.15,2013-03-18 23:00:00,
2013-03-18 17:05:00,76.1,17.7,29.74,West,268,2.0,2.0,11,0.00,,,0.00,Wunderground v.1.15,2013-03-18 23:05:00,
2013-03-18 17:15:00,75.8,17.5,29.75,WSW,238,3.0,5.0,11,0.00,,,0.00,Wunderground v.1.15,2013-03-18 23:15:00,
2013-03-18 17:20:00,75.6,19.4,29.75,West,265,3.0,3.0,12,0.00,,,0.00,Wunderground v.1.15,2013-03-18 23:20:00,
2013-03-18 17:30:00,75.3,19.1,29.75,WSW,241,4.0,4.0,12,0.00,,,0.00,Wunderground v.1.15,2013-03-18 23:30:00,
2013-03-18 17:35:00,75.2,19.1,29.75,West,267,3.0,4.0,12,0.00,,,0.00,Wunderground v.1.15,2013-03-18 23:35:00,
2013-03-18 17:40:00,74.8,18.7,29.75,WSW,238,4.0,4.0,12,0.00,,,0.00,Wunderground v.1.15,2013-03-18 23:40:00,
2013-03-18 17:50:00,74.5,18.5,29.76,West,261,2.0,2.0,12,0.00,,,0.00,Wunderground v.1.15,2013-03-18 23:50:00,
2013-03-18 17:55:00,74.5,18.5,29.76,NW,317,2.0,2.0,12,0.00,,,0.00,Wunderground v.1.15,2013-03-18 23:55:00,
2013-03-18 18:00:00,74.6,18.6,29.76,North,360,1.0,2.0,12,0.00,,,0.00,Wunderground v.1.15,2013-03-19 00:00:00,
2013-03-18 18:05:00,74.4,16.4,29.77,WSW,248,2.0,6.0,11,0.00,,,0.00,Wunderground v.1.15,2013-03-19 00:05:00,
2013-03-18 18:15:00,74.1,16.2,29.77,SSW,209,3.0,9.0,11,0.00,,,0.00,Wunderground v.1.15,2013-03-19 00:15:00,
2013-03-18 18:20:00,73.8,15.9,29.77,WSW,241,4.0,4.0,11,0.00,,,0.00,Wunderground v.1.15,2013-03-19 00:20:00,
2013-03-18 18:25:00,73.5,15.7,29.77,North,360,4.0,5.0,11,0.00,,,0.00,Wunderground v.1.15,2013-03-19 00:25:00,
2013-03-18 18:30:00,73.1,15.4,29.78,West,261,3.0,3.0,11,0.00,,,0.00,Wunderground v.1.15,2013-03-19 00:30:00,
2013-03-18 18:40:00,72.6,15.0,29.78,SSW,202,4.0,7.0,11,0.00,,,0.00,Wunderground v.1.15,2013-03-19 00:40:00,
2013-03-18 18:45:00,72.2,16.7,29.78,SW,224,4.0,7.0,12,0.00,,,0.00,Wunderground v.1.15,2013-03-19 00:45:00,
2013-03-18 18:55:00,71.8,16.4,29.78,WNW,286,3.0,3.0,12,0.00,,,0.00,Wunderground v.1.15,2013-03-19 00:55:00,
2013-03-18 19:00:00,71.5,16.2,29.78,WSW,246,3.0,3.0,12,0.00,,,0.00,Wunderground v.1.15,2013-03-19 01:00:00,
2013-03-18 19:05:00,71.2,15.9,29.78,SW,234,2.0,3.0,12,0.00,,,0.00,Wunderground v.1.15,2013-03-19 01:05:00,
2013-03-18 19:15:00,70.5,15.4,29.79,SW,236,1.0,2.0,12,0.00,,,0.00,Wunderground v.1.15,2013-03-19 01:15:00,
2013-03-18 19:20:00,70.2,15.1,29.80,SW,225,1.0,1.0,12,0.00,,,0.00,Wunderground v.1.15,2013-03-19 01:20:00,
2013-03-18 19:30:00,69.5,14.6,29.80,SW,230,0.0,0.0,12,0.00,,,0.00,Wunderground v.1.15,2013-03-19 01:30:00,
2013-03-18 19:35:00,69.2,14.4,29.80,WSW,238,0.0,0.0,12,0.00,,,0.00,Wunderground v.1.15,2013-03-19 01:35:00,
2013-03-18 19:45:00,68.6,13.9,29.80,WSW,248,0.0,0.0,12,0.00,,,0.00,Wunderground v.1.15,2013-03-19 01:45:00,
2013-03-18 19:50:00,68.3,13.7,29.82,SW,218,0.0,0.0,12,0.00,,,0.00,Wunderground v.1.15,2013-03-19 01:50:00,
2013-03-18 19:55:00,68.0,15.3,29.82,West,269,0.0,0.0,13,0.00,,,0.00,Wunderground v.1.15,2013-03-19 01:55:00,
2013-03-18 20:00:00,67.7,15.0,29.82,West,262,0.0,0.0,13,0.00,,,0.00,Wunderground v.1.15,2013-03-19 02:00:00,
2013-03-18 20:05:00,67.4,14.8,29.78,NW,309,0.0,0.0,13,0.00,,,0.00,Wunderground v.1.15,2013-03-19 02:05:00,
2013-03-18 20:15:00,66.8,14.3,29.79,West,276,0.0,0.0,13,0.00,,,0.00,Wunderground v.1.15,2013-03-19 02:15:00,
2013-03-18 20:20:00,66.5,15.8,29.79,WSW,243,0.0,0.0,14,0.00,,,0.00,Wunderground v.1.15,2013-03-19 02:20:00,
2013-03-18 20:25:00,66.3,15.6,29.80,West,267,0.0,0.0,14,0.00,,,0.00,Wunderground v.1.15,2013-03-19 02:25:00,
2013-03-18 20:35:00,65.9,15.3,29.80,West,269,0.0,0.0,14,0.00,,,0.00,Wunderground v.1.15,2013-03-19 02:35:00,
2013-03-18 20:45:00,65.4,14.9,29.81,WNW,286,0.0,0.0,14,0.00,,,0.00,Wunderground v.1.15,2013-03-19 02:45:00,
2013-03-18 20:50:00,65.0,16.2,29.81,WNW,284,0.0,0.0,15,0.00,,,0.00,Wunderground v.1.15,2013-03-19 02:50:00,
2013-03-18 20:55:00,64.7,15.9,29.81,West,267,0.0,0.0,15,0.00,,,0.00,Wunderground v.1.15,2013-03-19 02:55:00,
2013-03-18 21:00:00,64.5,15.8,29.81,West,271,0.0,1.0,15,0.00,,,0.00,Wunderground v.1.15,2013-03-19 03:00:00,
2013-03-18 21:05:00,64.3,15.6,29.80,NW,304,0.0,1.0,15,0.00,,,0.00,Wunderground v.1.15,2013-03-19 03:05:00,
2013-03-18 21:15:00,63.9,15.3,29.81,West,279,0.0,0.0,15,0.00,,,0.00,Wunderground v.1.15,2013-03-19 03:15:00,
2013-03-18 21:20:00,63.8,16.7,29.80,WNW,284,0.0,0.0,16,0.00,,,0.00,Wunderground v.1.15,2013-03-19 03:20:00,
2013-03-18 21:30:00,63.6,16.5,29.81,WNW,298,0.0,0.0,16,0.00,,,0.00,Wunderground v.1.15,2013-03-19 03:30:00,
2013-03-18 21:35:00,63.6,16.5,29.81,West,272,0.0,0.0,16,0.00,,,0.00,Wunderground v.1.15,2013-03-19 03:35:00,
2013-03-18 21:40:00,63.7,16.6,29.81,West,270,0.0,0.0,16,0.00,,,0.00,Wunderground v.1.15,2013-03-19 03:40:00,
2013-03-18 21:45:00,63.6,16.5,29.81,SW,236,0.0,0.0,16,0.00,,,0.00,Wunderground v.1.15,2013-03-19 03:45:00,
2013-03-18 21:50:00,63.6,16.5,29.81,SW,236,0.0,0.0,16,0.00,,,0.00,Wunderground v.1.15,2013-03-19 03:50:00,
2013-03-18 21:55:00,63.4,16.4,29.81,SW,236,0.0,0.0,16,0.00,,,0.00,Wunderground v.1.15,2013-03-19 03:55:00,
2013-03-18 22:00:00,63.3,16.3,29.81,SW,236,0.0,0.0,16,0.00,,,0.00,Wunderground v.1.15,2013-03-19 04:00:00,
2013-03-18 22:05:00,63.0,16.0,29.80,SW,236,0.0,0.0,16,0.00,,,0.00,Wunderground v.1.15,2013-03-19 04:05:00,
2013-03-18 22:15:00,62.4,15.6,29.80,SW,236,0.0,0.0,16,0.00,,,0.00,Wunderground v.1.15,2013-03-19 04:15:00,
2013-03-18 22:20:00,62.1,16.7,29.80,SW,236,0.0,0.0,17,0.00,,,0.00,Wunderground v.1.15,2013-03-19 04:20:00,
2013-03-18 22:25:00,61.8,16.5,29.80,SW,236,0.0,0.0,17,0.00,,,0.00,Wunderground v.1.15,2013-03-19 04:25:00,
2013-03-18 22:35:00,61.2,17.3,29.81,SW,236,0.0,0.0,18,0.00,,,0.00,Wunderground v.1.15,2013-03-19 04:35:00,
2013-03-18 22:40:00,60.9,17.0,29.81,SW,236,0.0,0.0,18,0.00,,,0.00,Wunderground v.1.15,2013-03-19 04:40:00,
2013-03-18 22:45:00,60.6,16.8,29.81,SW,236,0.0,0.0,18,0.00,,,0.00,Wunderground v.1.15,2013-03-19 04:45:00,
2013-03-18 22:55:00,60.0,16.3,29.81,SW,236,0.0,0.0,18,0.00,,,0.00,Wunderground v.1.15,2013-03-19 04:55:00,
2013-03-18 23:00:00,59.7,17.3,29.81,SW,236,0.0,0.0,19,0.00,,,0.00,Wunderground v.1.15,2013-03-19 05:00:00,
2013-03-18 23:05:00,59.3,17.0,29.81,SW,236,0.0,0.0,19,0.00,,,0.00,Wunderground v.1.15,2013-03-19 05:05:00,
2013-03-18 23:15:00,58.6,17.6,29.81,SW,236,0.0,0.0,20,0.00,,,0.00,Wunderground v.1.15,2013-03-19 05:15:00,
2013-03-18 23:25:00,58.0,17.1,29.81,SW,236,0.0,0.0,20,0.00,,,0.00,Wunderground v.1.15,2013-03-19 05:25:00,
2013-03-18 23:30:00,57.6,16.8,29.81,SW,236,0.0,0.0,20,0.00,,,0.00,Wunderground v.1.15,2013-03-19 05:30:00,
2013-03-18 23:35:00,57.3,16.5,29.82,SW,236,0.0,0.0,20,0.00,,,0.00,Wunderground v.1.15,2013-03-19 05:35:00,
2013-03-18 23:40:00,57.0,16.3,29.82,SW,236,0.0,0.0,20,0.00,,,0.00,Wunderground v.1.15,2013-03-19 05:40:00,
2013-03-18 23:45:00,56.6,15.9,29.82,SW,236,0.0,0.0,20,0.00,,,0.00,Wunderground v.1.15,2013-03-19 05:45:00,
2013-03-18 23:50:00,56.1,15.5,29.82,SW,236,0.0,0.0,20,0.00,,,0.00,Wunderground v.1.15,2013-03-19 05:50:00,